Wind_Speed
21 21 21 20 21 20 18 16 15 16 19 23 25 24 23 23 22 21 21 22 21 20 21 23 23 24 23 24 26 28 28 28 27 25 23 23 25 25 26 25 21 20
24 24 23 23 23 23 21 18 17 17 19 22 25 25 25 25 23 22 22 21 20 21 23 24 24 24 25 25 26 27 27 28 28 28 28 26 25 24 24 24 21 20
27 28 26 25 25 25 23 21 19 19 20 22 25 26 27 26 24 22 22 21 21 22 24 25 24 24 25 26 27 26 25 27 27 28 29 27 25 23 22 22 21 21
31 30 29 27 27 27 25 24 21 21 21 23 25 27 28 27 24 23 23 21 22 23 24 25 24 24 25 25 26 25 24 25 26 28 28 25 23 22 22 22 20 18
33 33 31 29 29 29 28 26 23 22 23 23 26 28 29 27 25 24 23 22 22 23 24 24 24 24 26 25 25 24 24 24 25 25 24 22 20 20 20 21 20 20
35 34 32 31 31 31 30 28 25 24 24 24 26 30 30 27 25 25 23 23 23 23 23 24 24 25 26 26 25 23 23 23 23 23 23 22 21 19 18 19 20 21
35 32 30 30 32 32 32 30 27 25 24 24 27 30 30 27 25 24 23 23 23 23 23 24 24 25 25 25 24 22 22 21 20 21 21 21 19 17 14 12 12 13
33 30 29 29 32 34 33 31 28 25 24 24 27 30 30 27 25 24 23 23 23 23 24 24 24 24 24 23 22 21 20 19 18 18 16 13 11 10 7 6 8 11
32 31 30 29 31 35 35 32 28 25 24 25 27 29 29 27 24 23 23 23 22 23 23 23 24 24 23 22 22 20 19 18 17 16 12 7 7 10 9 10 11 13
33 32 31 30 32 36 36 32 28 24 24 25 27 28 28 26 24 23 23 23 22 23 23 23 23 23 23 22 21 19 18 19 18 16 12 6 9 13 11 10 11 11
33 32 32 31 32 37 37 32 27 24 24 25 26 28 27 25 24 23 23 22 22 22 22 22 23 23 22 22 20 18 19 20 19 16 11 7 12 15 13 10 10 9
34 34 33 32 34 38 37 31 27 25 25 25 26 27 26 24 24 23 22 22 22 22 22 22 22 22 21 20 19 19 20 20 19 16 12 10 14 15 13 12 10 9
36 36 35 34 37 39 36 31 28 26 25 26 26 27 26 24 24 23 22 22 21 21 21 22 21 20 19 18 18 18 18 17 16 15 13 12 14 15 14 14 14 12
38 39 37 36 39 40 36 31 29 27 26 26 26 27 26 25 24 23 21 21 21 20 21 21 20 18 17 16 17 16 13 10 10 11 13 15 16 17 17 18 18 14
40 40 37 38 41 39 35 32 29 27 26 26 27 27 26 25 24 23 21 21 21 20 21 21 19 17 15 15 14 12 8 5 5 7 10 14 17 18 20 20 19 16
40 39 38 40 41 38 35 32 29 28 27 27 28 27 25 25 24 21 21 21 20 20 21 20 18 16 14 13 13 11 7 4 3 4 6 10 13 16 19 21 19 17
39 37 39 42 41 37 34 31 29 29 28 28 28 26 25 25 22 21 21 21 20 20 20 19 17 15 14 13 13 12 8 5 4 4 5 7 10 12 16 18 18 17
37 37 41 41 39 36 32 30 30 30 29 29 28 26 25 24 21 21 21 21 20 20 19 18 16 15 13 13 13 13 10 7 6 6 6 6 8 10 13 15 15 15
37 40 42 40 37 33 31 30 31 31 29 29 28 26 24 22 21 22 22 21 20 19 18 17 16 15 14 13 14 14 11 9 8 8 9 9 9 10 11 13 14 15
39 42 41 38 34 31 30 31 32 30 29 29 28 25 23 22 22 22 22 21 20 19 18 17 16 15 14 14 15 16 14 11 9 9 10 11 12 12 13 14 15 16
41 41 39 35 32 30 31 32 31 30 30 29 27 24 23 22 23 22 22 21 20 19 17 17 16 14 14 14 15 16 17 15 13 12 11 12 12 13 14 15 16 17
41 39 36 32 30 30 31 31 30 30 30 28 26 24 23 23 23 23 22 21 20 19 17 17 16 14 14 14 14 16 17 18 17 15 14 14 14 14 15 16 17 18
39 36 33 31 30 30 30 31 30 31 30 28 25 24 23 23 23 23 22 21 20 19 17 16 16 15 14 14 14 14 16 17 18 18 17 17 16 16 17 17 18 19
35 33 31 30 30 29 29 30 31 31 29 27 25 23 22 23 24 24 22 21 20 19 17 17 16 15 14 14 13 13 14 16 17 17 18 18 18 18 19 20 20 21
33 31 30 31 31 29 29 30 31 30 29 26 24 23 23 24 26 25 23 22 21 19 18 17 16 15 15 14 13 13 13 14 15 16 17 17 18 19 20 21 21 22
31 31 31 32 31 29 29 30 31 30 28 26 24 24 25 27 27 25 24 22 21 19 18 17 16 16 16 16 15 13 13 13 14 15 16 17 18 19 19 20 22 23
Wind_Direction
242 245 242 236 236 239 242 246 255 260 253 245 243 246 249 255 261 268 274 276 276 273 271 273 277 283 284 281 282 282 284 286 284 282 277 271 271 272 273 271 262 257
243 245 242 236 233 235 238 240 248 257 255 248 246 248 250 253 260 269 275 278 277 272 270 273 280 287 288 286 285 284 284 285 285 284 282 279 277 274 274 274 266 258
241 243 241 236 232 233 237 238 243 251 252 249 248 248 250 253 259 267 275 278 277 274 274 278 285 290 291 292 292 290 288 287 287 286 285 285 283 280 277 273 270 265
240 241 239 236 231 230 234 237 240 246 250 250 248 246 248 253 257 265 273 277 277 278 279 282 287 292 293 295 294 293 292 290 290 290 288 285 279 276 274 271 269 261
238 237 237 236 230 227 231 236 238 244 250 252 248 245 247 251 255 262 271 277 279 280 282 284 289 293 294 295 295 295 295 293 291 289 287 282 276 272 270 268 265 254
235 235 236 236 229 226 230 235 238 243 250 253 250 248 248 250 253 260 270 277 279 281 282 284 289 292 294 296 297 298 296 293 290 286 282 278 275 275 274 270 262 254
232 232 235 236 229 225 228 234 237 242 249 256 255 252 249 249 252 258 268 276 279 281 282 284 289 291 294 296 297 298 296 292 289 286 281 277 275 275 273 263 245 229
228 229 234 236 230 224 227 233 236 242 251 259 259 253 248 248 251 256 267 275 279 281 281 284 288 290 292 295 296 295 293 291 290 287 282 275 265 254 233 185 161 163
228 231 234 237 231 224 226 232 236 243 253 259 259 253 248 247 250 256 266 274 278 279 279 283 286 288 291 294 294 292 290 290 289 284 283 272 228 209 181 154 152 157
231 234 236 239 232 224 225 231 235 242 253 258 257 252 247 246 249 255 266 273 275 276 277 282 284 287 292 294 292 290 288 288 286 280 279 253 197 187 173 166 174 181
234 236 238 240 231 223 225 229 234 242 252 256 254 249 246 246 248 255 265 271 272 273 276 280 284 288 293 294 291 290 287 286 282 274 268 229 192 183 179 184 191 199
237 238 240 238 227 221 224 228 233 241 250 254 252 247 244 244 247 255 264 267 268 270 274 279 283 289 293 292 290 291 290 285 276 265 253 226 202 192 189 191 193 203
237 239 240 234 223 221 223 227 232 240 248 253 250 245 243 242 245 254 261 263 264 267 273 277 284 290 291 289 290 292 290 284 272 255 240 228 216 206 202 196 192 203
236 237 237 228 220 220 222 226 232 239 247 251 247 243 240 239 244 253 257 258 260 265 270 275 283 288 287 286 288 287 284 282 270 249 232 223 219 215 213 205 195 201
231 233 230 223 218 219 222 227 232 240 247 249 244 240 236 236 244 251 253 254 257 261 267 275 282 284 281 281 280 272 267 275 270 247 231 221 217 218 221 217 206 207
227 228 224 218 216 219 223 228 234 241 247 247 242 235 231 234 243 247 248 250 253 259 266 274 280 279 276 274 266 251 245 255 251 235 223 213 210 214 219 222 217 214
225 224 218 214 216 220 224 229 236 243 246 244 238 230 227 234 241 243 243 245 250 256 265 273 277 274 272 268 256 242 236 238 232 223 210 200 201 206 215 222 224 224
223 217 212 213 217 221 225 231 238 243 243 239 231 225 227 234 238 238 240 242 247 255 263 271 272 268 267 264 251 240 234 232 231 224 214 206 203 207 215 222 227 232
217 211 210 214 218 221 226 234 238 241 239 232 225 222 227 232 233 234 236 239 245 254 261 266 267 263 263 259 249 241 234 230 233 229 222 219 216 217 221 227 232 239
210 207 211 215 219 224 230 234 236 237 232 224 219 221 226 230 230 231 233 237 244 252 258 262 262 259 260 258 250 243 237 234 235 235 230 227 226 229 233 237 242 247
204 207 212 216 220 227 231 232 232 230 223 218 217 221 225 227 227 227 230 236 243 250 255 258 257 256 258 259 253 246 241 238 237 239 239 236 235 237 240 244 248 252
203 208 213 218 223 226 228 229 227 222 217 215 217 221 223 224 224 226 229 234 241 248 252 254 254 254 256 258 255 249 244 242 240 241 243 244 245 247 249 252 255 257
205 211 216 220 222 224 225 225 220 215 213 214 217 220 222 222 223 226 230 234 240 245 250 252 252 253 255 257 257 252 247 244 243 243 245 248 251 254 256 258 259 261
208 213 216 219 221 222 222 219 215 213 212 214 217 219 218 218 222 227 230 234 238 243 248 250 251 252 254 257 257 253 250 247 246 246 247 249 252 255 258 260 260 261
210 213 215 218 220 219 218 215 213 212 212 214 217 216 215 217 222 226 230 234 238 242 246 250 251 251 254 256 256 255 253 250 249 249 250 251 254 257 260 262 264 264
210 213 216 219 219 217 216 214 212 211 212 214 216 216 217 220 223 226 230 235 238 241 244 248 250 251 252 254 255 254 254 253 252 252 253 255 259 261 263 265 266 266
Height
3154 3155 3156 3157 3157 3158 3158 3158 3159 3159 3160 3160 3161 3162 3163 3164 3164 3165 3165 3165 3166 3166 3166 3165 3165 3164 3163 3161 3158 3156 3154 3151 3151 3153 3157 3158 3158 3156 3154 3153 3154 3155
3151 3152 3153 3154 3155 3156 3156 3156 3157 3157 3158 3158 3159 3160 3160 3161 3162 3163 3163 3163 3164 3164 3163 3163 3163 3162 3160 3159 3157 3155 3153 3151 3150 3149 3150 3152 3153 3152 3151 3150 3151 3152
3148 3149 3151 3152 3153 3154 3154 3154 3154 3155 3155 3156 3157 3158 3158 3159 3161 3161 3161 3161 3161 3161 3161 3161 3161 3160 3158 3157 3155 3154 3153 3151 3149 3147 3146 3147 3148 3147 3147 3147 3148 3148
3145 3146 3148 3149 3150 3151 3152 3152 3152 3152 3153 3154 3155 3156 3156 3157 3158 3159 3159 3159 3159 3159 3159 3159 3158 3157 3156 3155 3153 3152 3151 3150 3147 3145 3144 3144 3144 3144 3144 3144 3145 3146
3142 3143 3145 3146 3147 3148 3149 3149 3150 3150 3150 3152 3153 3153 3153 3155 3156 3157 3157 3157 3157 3157 3157 3156 3156 3155 3153 3152 3151 3150 3149 3148 3146 3144 3142 3142 3141 3141 3141 3141 3142 3143
3138 3140 3142 3143 3144 3145 3146 3146 3148 3148 3148 3150 3151 3151 3151 3153 3154 3155 3155 3154 3155 3155 3155 3154 3154 3152 3151 3150 3148 3148 3146 3145 3144 3142 3141 3140 3139 3138 3138 3138 3138 3139
3135 3137 3138 3139 3140 3142 3143 3144 3144 3145 3146 3147 3148 3148 3149 3150 3152 3152 3153 3152 3152 3153 3153 3152 3152 3150 3149 3147 3146 3145 3144 3143 3142 3141 3139 3138 3137 3136 3136 3135 3135 3136
3132 3133 3135 3136 3137 3139 3139 3140 3141 3142 3143 3145 3145 3146 3147 3148 3149 3150 3150 3150 3151 3150 3150 3150 3150 3149 3147 3146 3145 3144 3143 3142 3141 3140 3138 3137 3136 3136 3135 3135 3135 3136
3128 3130 3131 3132 3134 3135 3136 3137 3139 3139 3141 3142 3142 3143 3144 3146 3147 3148 3148 3148 3149 3149 3148 3148 3147 3146 3145 3144 3143 3142 3141 3140 3140 3139 3137 3136 3136 3137 3137 3137 3137 3139
3125 3126 3128 3129 3131 3132 3133 3134 3136 3137 3138 3139 3140 3141 3142 3143 3145 3145 3146 3146 3147 3146 3146 3146 3145 3144 3143 3142 3141 3140 3139 3139 3138 3137 3136 3135 3136 3137 3138 3138 3139 3140
3121 3123 3125 3126 3128 3129 3130 3132 3133 3134 3135 3137 3138 3138 3140 3141 3142 3143 3144 3144 3144 3144 3144 3144 3143 3142 3141 3140 3139 3139 3138 3137 3136 3135 3135 3135 3135 3136 3137 3138 3139 3139
3118 3120 3122 3123 3124 3125 3127 3129 3131 3131 3133 3134 3135 3136 3137 3139 3140 3141 3141 3142 3142 3142 3142 3142 3141 3140 3139 3138 3137 3137 3136 3135 3134 3133 3134 3134 3135 3136 3137 3138 3139 3139
3114 3116 3118 3120 3121 3122 3124 3126 3128 3129 3130 3131 3133 3134 3135 3137 3138 3138 3139 3140 3140 3140 3140 3140 3139 3138 3137 3136 3136 3135 3134 3133 3132 3132 3132 3133 3134 3135 3136 3137 3138 3139
3111 3113 3114 3116 3117 3119 3122 3123 3124 3126 3127 3129 3130 3131 3133 3134 3135 3136 3137 3138 3138 3138 3138 3137 3137 3136 3136 3135 3134 3134 3133 3131 3130 3130 3130 3131 3133 3134 3135 3136 3137 3138
3107 3108 3110 3112 3114 3116 3119 3120 3121 3123 3124 3126 3127 3129 3131 3132 3133 3134 3135 3135 3136 3136 3136 3135 3135 3134 3134 3134 3133 3133 3132 3131 3129 3129 3129 3129 3131 3132 3133 3135 3136 3137
3102 3104 3107 3109 3111 3113 3115 3117 3118 3120 3122 3123 3124 3126 3128 3129 3130 3131 3132 3133 3133 3134 3133 3133 3133 3132 3132 3132 3132 3132 3131 3130 3129 3128 3128 3129 3129 3131 3132 3134 3135 3136
3098 3101 3103 3105 3108 3110 3112 3114 3115 3117 3119 3120 3122 3124 3125 3126 3128 3129 3130 3130 3131 3131 3131 3130 3130 3130 3131 3131 3131 3131 3130 3130 3129 3129 3128 3129 3129 3130 3131 3133 3134 3135
3095 3097 3099 3102 3105 3107 3109 3111 3112 3114 3115 3117 3119 3121 3122 3124 3125 3126 3127 3128 3128 3129 3129 3128 3128 3128 3129 3129 3129 3129 3129 3129 3129 3128 3128 3129 3129 3130 3131 3132 3133 3134
3092 3094 3096 3099 3102 3104 3106 3107 3109 3110 3112 3114 3116 3118 3119 3121 3122 3124 3125 3126 3126 3126 3126 3126 3126 3127 3127 3127 3127 3128 3128 3128 3128 3128 3128 3128 3129 3130 3130 3131 3132 3133
3088 3091 3094 3096 3099 3101 3103 3104 3106 3107 3109 3112 3113 3115 3117 3118 3120 3121 3122 3123 3123 3124 3124 3124 3124 3125 3125 3125 3126 3126 3126 3127 3127 3127 3127 3128 3128 3129 3130 3130 3131 3131
3086 3088 3091 3094 3096 3098 3100 3101 3103 3105 3107 3109 3111 3112 3114 3116 3117 3118 3120 3120 3121 3121 3122 3122 3122 3123 3123 3124 3124 3125 3125 3125 3126 3126 3126 3127 3127 3128 3128 3128 3129 3129
3083 3086 3088 3091 3093 3095 3096 3098 3100 3102 3104 3106 3108 3110 3111 3113 3114 3116 3117 3118 3118 3119 3119 3120 3120 3121 3121 3122 3122 3123 3123 3124 3124 3124 3125 3125 3126 3126 3126 3126 3127 3127
3080 3083 3086 3088 3090 3092 3093 3095 3097 3100 3102 3104 3105 3107 3109 3110 3112 3113 3115 3115 3116 3117 3117 3118 3118 3119 3119 3120 3121 3121 3122 3122 3122 3123 3123 3123 3124 3124 3124 3124 3124 3125
3078 3081 3083 3085 3087 3089 3091 3093 3095 3097 3099 3101 3103 3105 3107 3108 3109 3111 3112 3113 3113 3114 3115 3116 3116 3117 3117 3118 3119 3120 3120 3120 3121 3121 3121 3121 3121 3122 3122 3122 3122 3122
3075 3078 3080 3082 3084 3086 3088 3090 3092 3094 3096 3098 3100 3102 3104 3105 3107 3108 3109 3110 3111 3112 3113 3114 3114 3115 3115 3116 3117 3117 3118 3118 3118 3118 3118 3119 3119 3119 3119 3119 3119 3119
3073 3075 3077 3079 3081 3083 3086 3087 3089 3091 3094 3096 3098 3100 3101 3103 3104 3105 3107 3108 3109 3110 3111 3112 3112 3113 3113 3114 3115 3115 3115 3116 3116 3116 3116 3116 3116 3116 3116 3116 3116 3116